Home > Weather > Tacoma > Past weeks

Flag for USA Past Weather in Tacoma, Washington, USA — Yesterday and Last 2 Weeks

Now
85 °F

Sunny.


Feels Like: 83 °F
Forecast: 57 / 86 °F
Wind: 12 mph from North

Location: Tacoma Narrows Airport

Current Time: Aug 25, 2016 at 3:24:24 PM

Latest Report: Aug 25, 2016 at 2:53 PM


Visibility: 10 mi

Pressure: 30.02 "Hg

Humidity: 30%

Dew Point: 50 °F

Location of TacomaLocation

Past Weather in Tacoma — Graph

°F

Tacoma Temperature Yesterday

Maximum temperature yesterday: 80 °F (at 3:53 PM)
Minimum temperature yesterday: 55 °F (at 5:53 AM)
Average temperature yesterday: 69 °F

High & Low Weather Summary for the Past Weeks

 TemperatureHumidityPressure
High90 °F (Aug 19, 3:53 PM)100% (Aug 14, 7:53 AM)30.24 "Hg (Aug 14, 7:53 AM)
Low52 °F (Aug 23, 4:53 AM)19% (Aug 19, 3:53 PM)29.79 "Hg (Aug 20, 7:53 PM)
Average68 °F62%30.04 "Hg
* Reported Aug 10 1:53 PM — Aug 25 1:53 PM, Tacoma, Weather by CustomWeather, © 2016

Note: Actual official high and low records may vary slightly from our data, if they occured in-between our weather recording intervals... More about our weather records

Advertising

Tacoma Weather History for the Previous 24 Hours

Scroll right to see more
 ConditionsComfort  
Time TempWeatherWind HumidityBarometerVisibility
1:53 PM
Thu, Aug 25
83 °FSunny.12 mph31%30.04 "Hg10 mi
12:53 PM79 °FSunny.12 mph35%30.06 "Hg10 mi
11:53 AM77 °FSunny.10 mph37%30.09 "Hg10 mi
10:53 AM74 °FSunny.6 mph45%30.11 "Hg10 mi
9:53 AM71 °FSunny.7 mph49%30.11 "Hg10 mi
8:53 AM65 °FSunny.No wind66%30.13 "Hg10 mi
7:53 AM64 °FSunny.No wind65%30.14 "Hg10 mi
6:53 AM60 °FClear.No wind67%30.13 "Hg10 mi
5:53 AM60 °FClear.No wind69%30.12 "Hg10 mi
4:53 AM59 °FClear.No wind69%30.13 "Hg10 mi
3:53 AM63 °FClear.No wind60%30.11 "Hg10 mi
2:53 AM63 °FClear.3 mph60%30.13 "Hg10 mi
1:53 AM64 °FClear.No wind56%30.13 "Hg10 mi
12:53 AM70 °FClear.3 mph46%30.13 "Hg10 mi
11:53 PM
Wed, Aug 24
69 °FClear.No wind47%30.12 "Hg10 mi
10:53 PM72 °FClear.No wind41%30.11 "Hg10 mi
9:53 PM75 °FClear.8 mph34%30.12 "Hg10 mi
8:53 PM75 °FSunny.7 mph36%30.13 "Hg10 mi
7:53 PM75 °FSunny.9 mph39%30.12 "Hg10 mi
6:53 PM77 °FSunny.10 mph37%30.11 "Hg10 mi
5:53 PM78 °FSunny.9 mph36%30.13 "Hg10 mi
4:53 PM79 °FSunny.10 mph36%30.14 "Hg10 mi
3:53 PM80 °FSunny.12 mph34%30.15 "Hg10 mi
Weather by CustomWeather, © 2016

See weather overviewHow to use our weather pages